STARLINK-2523, 48306

Orbit data source: Space-Track

STARLINK-2523, 48306 is a payload satellite owned by SpaceX/Seattle (US) in LEO that was launched on Thu, 29 Apr 2021 UTC via an FALCON 9 launch vehicle from the Air Force Eastern Test Range (AFETR). Payload-class satellites include a variety of spacecraft equipped with specific instruments for various scientific and technological missions. These include communications satellites like Starlink; space stations such as the ISS; scientific satellites like the Hubble; Earth observation satellites from companies like Planet Labs, Umbra, and HawkEye 360; GPS; miniature CubeSats for education and research; and military/defense satellites.

Loading next visibility...
Identifier
48306, 2021-036AG
Orbit
LEO
Country
Flag of USUS
Related business
Manufacturer
SpaceX/Seattle
Mission
Operational Commercial Communications
Bus & Motor
STARLINK, Unknown motor
Mass
260 kg wet, ~248 kg dry
Launch date (UTC)
2021-04-29 (5 years ago)
Launch vehicle
FALCON 9
Launch site
Air Force Eastern Test Range (AFETR)
Object type
Payload
Rocket body
Debris
Shape & HBR
Box + 1 Pan, 10.1 m
Radar Cross Section
13.562 m², Large (>1 m²)

Expand to show TLE details & history
Last TLE update: 5 hours ago

TLE from 5 hours ago
0 STARLINK-2523
1 48306U 21036AG  25355.48516747 -.00001165  00000-0 -59327-4 0  9990
2 48306  53.0549  82.6908 0001101  87.8842 272.2273 15.06403125256388
Epoch: 2025-12-21T11:38Z
TLE epoch observation values (Epoch: 2025-12-21T11:38:38.469Z)
Latitude
-0.00002°
Longitude
177.73355°
Altitude
548.052 km
Speed
7.589 km/s
True Right ascension
05h 30m 45s
True Declination
0° 00' 00"
Sunlit
Object was in full shadow at epoch
Visualization orbit readout
Latitude
Unknown
Longitude
Unknown
Altitude
Unknown
Speed
Unknown
Apparent Right ascension
Unknown
Apparent Declination
Unknown
Sunlit
N/A
Visualization observer readout
Local Sidereal Time
15:59:26
Azimuth
Unknown
Elevation
Unknown
Doppler factor
Unknown
Orbital elements
Apogee altitude
548.235 km
Perigee altitude
546.71 km
Semi-major axis
6,925.61 km
Eccentricity
0.00011
Inclination
53.0549°
RAAN
82.6908°
Arg. of periapsis
87.8842°
True anomaly
272.21469°
Mean anomaly
272.2273°
Eccentric anomaly
272.221°
Mean motion
3.76579 °/min
Orbital period
95.6 mins
BSTAR
-0.000059327
Loading maneuver chart data...
Computing Atmospheric mass density...
Loading historical data...
Loading historical data...
Loading historical data...
Loading historical data...
Loading historical data...
Loading historical data...
Loading historical data...

Documentation

Showing up to 5 results
|